KT2UU-13 Weather Reports


time (UTC)temp
C
wind
direction
speed
KPH
gust
KPH
rain 1hr
cm
rain 24hr
cm
rain mn
cm
humidity
%
barometer
mb
20260505034821 17 139 0.0 1.6 0.00 0.00 0.00 60 1015.6
20260505034317 17 132 0.0 0.0 0.00 0.00 0.00 59 1015.8
20260505033815 16 132 0.0 0.0 0.00 0.00 0.00 61 1015.7
20260505033311 16 132 0.0 0.0 0.00 0.00 0.00 60 1015.9
20260505032810 16 132 0.0 0.0 0.00 0.00 0.00 62 1015.7
20260505032305 16 132 0.0 0.0 0.00 0.00 0.00 63 1015.8
20260505031803 16 132 0.0 0.0 0.00 0.00 0.00 63 1015.7
20260505031259 16 132 0.0 0.0 0.00 0.00 0.00 62 1015.5
20260505030757 16 132 0.0 0.0 0.00 0.00 0.00 61 1015.7
20260505030253 17 132 0.0 0.0 0.00 0.00 0.00 61 1015.5
20260505025748 17 132 0.0 0.0 0.00 0.00 0.00 61 1015.6
20260505025246 16 132 0.0 0.0 0.00 0.00 0.00 60 1015.6
20260505024744 16 132 0.0 0.0 0.00 0.00 0.00 61 1015.6
20260505024241 16 132 0.0 0.0 0.00 0.00 0.00 61 1015.4
20260505023738 16 132 0.0 0.0 0.00 0.00 0.00 60 1015.5
20260505023236 16 132 0.0 0.0 0.00 0.00 0.00 60 1015.5
20260505022733 17 132 0.0 0.0 0.00 0.00 0.00 59 1015.5
20260505022230 16 151 0.0 0.0 0.00 0.00 0.00 60 1015.5
20260505021726 17 132 0.0 0.0 0.00 0.00 0.00 61 1015.4
20260505021223 17 151 0.0 0.0 0.00 0.00 0.00 60 1015.4
20260505020719 17 132 0.0 0.0 0.00 0.00 0.00 60 1015.3
20260505020214 17 132 0.0 0.0 0.00 0.00 0.00 62 1015.4
20260505015712 17 132 0.0 0.0 0.00 0.00 0.00 61 1015.2
20260505015209 17 132 0.0 0.0 0.00 0.00 0.00 61 1015.3
20260505014706 17 132 0.0 0.0 0.00 0.00 0.00 61 1015.1
20260505014203 17 132 0.0 0.0 0.00 0.00 0.00 61 1015.1
20260505013659 17 132 0.0 0.0 0.00 0.00 0.00 61 1015.2
20260505013157 17 132 0.0 0.0 0.00 0.00 0.00 61 1015.1
20260505012655 17 150 0.0 0.0 0.00 0.00 0.00 62 1015.1
20260505012147 17 150 0.0 0.0 0.00 0.00 0.00 62 1015.3
20260505011642 17 132 0.0 0.0 0.00 0.00 0.00 62 1014.9
20260505011140 18 132 0.0 0.0 0.00 0.00 0.00 62 1014.8
20260505010640 18 132 0.0 0.0 0.00 0.00 0.00 62 1014.9
20260505010137 18 132 0.0 0.0 0.00 0.00 0.00 60 1015.0
20260505005632 18 132 0.0 0.0 0.00 0.00 0.00 59 1014.9
20260505005130 18 132 0.0 0.0 0.00 0.00 0.00 59 1015.1
20260505004627 19 132 0.0 0.0 0.00 0.00 0.00 58 1015.0
20260505004123 20 132 0.0 0.0 0.00 0.00 0.00 58 1015.1
20260505003621 20 132 0.0 0.0 0.00 0.00 0.00 57 1014.9
20260505003118 20 132 0.0 0.0 0.00 0.00 0.00 54 1014.9
20260505002614 21 132 0.0 0.0 0.00 0.00 0.00 52 1015.0
20260505002113 21 132 0.0 0.0 0.00 0.00 0.00 50 1014.8
20260505001609 22 132 0.0 0.0 0.00 0.00 0.00 49 1014.8
20260505001107 22 132 0.0 0.0 0.00 0.00 0.00 47 1014.9
20260505000604 22 132 0.0 0.0 0.00 0.00 0.00 46 1014.8
20260504235558 23 132 0.0 0.0 0.00 0.00 0.00 46 1014.8
20260504235054 23 132 0.0 0.0 0.00 0.00 0.00 46 1014.8
20260504234551 23 132 0.0 0.0 0.00 0.00 0.00 44 1014.7
20260504234049 23 132 0.0 0.0 0.00 0.00 0.00 43 1014.7
20260504233544 24 132 0.0 0.0 0.00 0.00 0.00 44 1014.7
20260504233041 24 132 0.0 0.0 0.00 0.00 0.00 41 1014.8
20260504232538 25 132 0.0 0.0 0.00 0.00 0.00 42 1014.8
20260504232036 25 131 0.0 0.0 0.00 0.00 0.00 41 1014.8
20260504231532 25 126 0.0 0.0 0.00 0.00 0.00 41 1014.7
20260504231028 25 130 0.0 3.2 0.00 0.00 0.00 41 1015.0
20260504230524 25 130 1.6 3.2 0.00 0.00 0.00 41 1014.8
20260504230024 25 130 0.0 0.0 0.00 0.00 0.00 46 1014.7
20260504225520 25 130 0.0 1.6 0.00 0.00 0.00 44 1014.7
20260504225017 25 146 0.0 3.2 0.00 0.00 0.00 43 1014.9
20260504224514 24 130 0.0 0.0 0.00 0.00 0.00 45 1014.7
20260504224011 24 130 0.0 0.0 0.00 0.00 0.00 44 1014.8
20260504223508 24 130 0.0 0.0 0.00 0.00 0.00 43 1014.9
20260504223004 24 130 0.0 0.0 0.00 0.00 0.00 43 1014.9
20260504222500 24 130 0.0 1.6 0.00 0.00 0.00 45 1015.0
20260504221958 25 130 0.0 1.6 0.00 0.00 0.00 41 1015.1
20260504221455 25 129 1.6 1.6 0.00 0.00 0.00 42 1015.1
20260504220952 25 113 0.0 6.4 0.00 0.00 0.00 42 1014.8
20260504220448 25 107 0.0 0.0 0.00 0.00 0.00 42 1014.9
20260504215945 25 97 0.0 3.2 0.00 0.00 0.00 42 1015.0
20260504215442 25 211 0.0 0.0 0.00 0.00 0.00 43 1014.9
20260504214939 25 110 1.6 1.6 0.00 0.00 0.00 44 1014.8
20260504214435 25 115 3.2 6.4 0.00 0.00 0.00 45 1014.9
20260504213932 25 4 0.0 1.6 0.00 0.00 0.00 47 1014.8
20260504213428 25 100 1.6 3.2 0.00 0.00 0.00 44 1015.0
20260504212926 24 121 0.0 0.0 0.00 0.00 0.00 46 1015.1
20260504212421 23 120 1.6 6.4 0.00 0.00 0.00 46 1015.1
20260504211919 24 157 1.6 3.2 0.00 0.00 0.00 46 1015.1
20260504211415 25 165 0.0 3.2 0.00 0.00 0.00 44 1015.0
20260504210912 25 142 3.2 4.8 0.00 0.00 0.00 43 1014.9
20260504210409 25 146 1.6 1.6 0.00 0.00 0.00 44 1015.1
20260504205907 24 145 0.0 3.2 0.00 0.00 0.00 43 1015.0
20260504205404 24 131 1.6 6.4 0.00 0.00 0.00 42 1015.1
20260504204902 25 151 3.2 4.8 0.00 0.00 0.00 41 1015.2
20260504204400 25 147 1.6 3.2 0.00 0.00 0.00 40 1015.2
20260504203900 25 134 0.0 4.8 0.00 0.00 0.00 44 1015.1
20260504203356 25 155 1.6 9.7 0.00 0.00 0.00 43 1015.1
20260504202852 25 132 1.6 3.2 0.00 0.00 0.00 44 1015.1
20260504202349 24 174 3.2 9.7 0.00 0.00 0.00 43 1015.1
20260504201845 25 194 4.8 12.9 0.00 0.00 0.00 44 1015.3
20260504201343 26 97 1.6 3.2 0.00 0.00 0.00 43 1015.3
20260504200840 25 129 1.6 3.2 0.00 0.00 0.00 41 1015.4
20260504200337 25 124 0.0 1.6 0.00 0.00 0.00 45 1015.4
20260504195833 25 98 0.0 0.0 0.00 0.00 0.00 45 1015.4
20260504195329 25 156 3.2 3.2 0.00 0.00 0.00 42 1015.6
20260504194826 25 180 6.4 6.4 0.00 0.00 0.00 40 1015.9
20260504194322 25 217 0.0 3.2 0.00 0.00 0.00 41 1015.7
20260504193818 25 52 1.6 3.2 0.00 0.00 0.00 43 1015.9
20260504193316 25 124 4.8 6.4 0.00 0.00 0.00 43 1015.8
20260504192814 25 102 0.0 4.8 0.00 0.00 0.00 46 1015.8
20260504192312 25 18 0.0 0.0 0.00 0.00 0.00 48 1016.0
20260504191810 24 18 0.0 0.0 0.00 0.00 0.00 49 1016.1
20260504191307 24 131 0.0 0.0 0.00 0.00 0.00 46 1016.3
20260504190803 24 131 0.0 3.2 0.00 0.00 0.00 46 1016.3
20260504190259 23 145 0.0 0.0 0.00 0.00 0.00 49 1016.3
20260504185755 24 145 0.0 4.8 0.00 0.00 0.00 46 1016.5
20260504185253 23 149 0.0 3.2 0.00 0.00 0.00 46 1016.4
20260504184749 24 200 1.6 4.8 0.00 0.00 0.00 48 1016.4
20260504184244 23 169 6.4 9.7 0.00 0.00 0.00 46 1016.6
20260504183740 23 203 3.2 4.8 0.00 0.00 0.00 49 1016.6
20260504183237 23 221 3.2 9.7 0.00 0.00 0.00 47 1016.4
20260504182736 23 164 0.0 3.2 0.00 0.00 0.00 45 1016.8
20260504182232 23 142 3.2 4.8 0.00 0.00 0.00 51 1016.6
20260504181730 23 9 8.0 11.3 0.00 0.00 0.00 48 1016.8
20260504181227 23 4 0.0 0.0 0.00 0.00 0.00 49 1016.9
20260504180726 23 110 0.0 3.2 0.00 0.00 0.00 50 1016.8
20260504180225 22 219 0.0 3.2 0.00 0.00 0.00 47 1017.0
20260504175722 22 192 6.4 9.7 0.00 0.00 0.00 48 1017.0
20260504175218 22 186 3.2 3.2 0.00 0.00 0.00 49 1017.1
20260504174716 22 120 3.2 3.2 0.00 0.00 0.00 51 1017.2
20260504174214 22 119 3.2 4.8 0.00 0.00 0.00 48 1017.3
20260504173710 22 142 0.0 1.6 0.00 0.00 0.00 51 1017.2
20260504173208 22 110 0.0 1.6 0.00 0.00 0.00 50 1017.4
20260504172704 22 98 4.8 6.4 0.00 0.00 0.00 50 1017.6
20260504172200 22 250 3.2 3.2 0.00 0.00 0.00 50 1017.4
20260504171657 21 124 1.6 3.2 0.00 0.00 0.00 50 1017.5
20260504171154 21 195 6.4 11.3 0.00 0.00 0.00 49 1017.8
20260504170650 22 206 3.2 4.8 0.00 0.00 0.00 49 1017.7
20260504170148 21 6 0.0 4.8 0.00 0.00 0.00 52 1017.7
20260504151033 18 133 0.0 1.6 0.00 0.00 0.00 59 1018.7
20260504150531 17 16 1.6 3.2 0.00 0.00 0.00 61 1018.6
20260504140957 17 211 0.0 1.6 0.00 0.00 0.00 68 1019.2
20260504140454 16 348 0.0 1.6 0.00 0.00 0.00 69 1019.0
20260504130418 14 213 0.0 1.6 0.00 0.00 0.00 74 1018.9
20260504110305 5 181 0.0 0.0 0.00 0.00 0.00 98 1018.7
20260504100223 5 181 0.0 0.0 0.00 0.00 0.00 97 1018.3
20260504081616 6 181 0.0 0.0 0.00 0.00 0.00 95 1018.2
20260504081112 6 181 0.0 0.0 0.00 0.00 0.00 95 1017.9
20260504080609 6 181 0.0 0.0 0.00 0.00 0.00 95 1018.2
20260504080105 6 181 0.0 0.0 0.00 0.00 0.00 94 1018.1
20260504050421 8 181 0.0 0.0 0.00 0.00 0.00 85 1019.2
20260504045918 8 181 0.0 0.0 0.00 0.00 0.00 85 1019.2
20260504045414 8 181 0.0 0.0 0.00 0.00 0.00 86 1019.2
20260504044910 8 180 0.0 0.0 0.00 0.00 0.00 86 1019.2
20260504044408 8 181 0.0 0.0 0.00 0.00 0.00 85 1019.1
20260504043905 8 181 0.0 0.0 0.00 0.00 0.00 84 1019.3
20260504043402 8 180 0.0 0.0 0.00 0.00 0.00 84 1019.1
20260504042900 8 180 0.0 0.0 0.00 0.00 0.00 84 1019.1
20260504042355 9 175 0.0 0.0 0.00 0.00 0.00 84 1019.1
20260504041852 9 181 0.0 0.0 0.00 0.00 0.00 84 1019.2
20260504041348 9 181 0.0 0.0 0.00 0.00 0.00 84 1019.1
20260504040845 10 181 0.0 0.0 0.00 0.00 0.00 83 1018.9
20260504040343 10 181 0.0 0.0 0.00 0.00 0.00 82 1019.0
20260504035838 9 181 0.0 0.0 0.00 0.00 0.00 83 1019.0
20260504035337 9 181 0.0 0.0 0.00 0.00 0.00 85 1019.1